Voltar ao catálogo

ONEWEB-0417

AtivoComunicaçõesPO
NORAD 50492·PAYLOAD·🇬🇧 United Kingdom

Lançado Dec 27, 2021 de Baikonur Cosmodrome

Loading…

Próximas Passagens (próximas 24 horas)

TLE

AtualizadoSource: CelesTrak SupGP

Época: Sep 14, 2026, 22:45 UTC

1 50492C 21132Z   26257.94844167  .00001866  00000+0  47401-2 0  2579
2 50492  87.9162 317.6218 0001974 106.5087 289.1712 13.18683061    19

Acompanhe ONEWEB-0417 em tempo real com AllMySat

Download on the App Store